Zurück zum Katalog

CZ-3C DEB

AktivHEO
NORAD 39344·DEBRIS·🇨🇳 China

Gestartet Oct 31, 2010 von Xichang Satellite Launch Center

Loading…

Nächste Überflüge (nächste 24 Stunden)

TLE

VeraltetSource: Space-Track

Epoche: Jan 21, 2026, 12:07 UTC

1 39344U 10057J   26021.50522111  .00002227  00000-0  25859-2 0  9998
2 39344  20.7848  30.4141 6706884 203.9232  99.2819  2.96110811 18609

Verfolge CZ-3C DEB in Echtzeit mit AllMySat

Download on the App Store